When you browse on this site, cookies collect data to enhance your experience and personalize the content and advertising you see.
Visit our Privacy Policy to learn more. By continuing to use the site, you agree to this use of cookies and data.
  • In Czech Republic
  • List of Countries
  • For 7 days
  • Water Temperature
  • Satellite Maps
  • Weather Map
  • Weather Widgets
  • user-avatar
    Login

    Hourly Weather Galich

    Today, 12 December, Wednesday

    Time Temperature Precipitation Wind Pressure Humidity
    00:00 0°C° 0 mm 1 mps 741 mmHg 85%
    01:00 0°C° 0 mm 1 mps 741 mmHg 84%
    02:00 -1°C° 0 mm 0 mps 741 mmHg 84%
    03:00 -1°C° 0 mm 0 mps 742 mmHg 83%
    04:00 -1°C° 0 mm 0 mps 742 mmHg 83%
    05:00 -1°C° 0 mm 0 mps 742 mmHg 82%
    06:00 -1°C° 0 mm 0 mps 742 mmHg 83%
    07:00 -1°C° 0 mm 0 mps 742 mmHg 83%
    08:00 -1°C° 0 mm 0 mps 742 mmHg 83%
    09:00 -1°C° 0 mm 0 mps 742 mmHg 81%
    10:00 0°C° 0 mm 0 mps 742 mmHg 78%
    11:00 +2°C° 0 mm 1 mps 743 mmHg 75%
    12:00 +2°C° 0 mm 1 mps 743 mmHg 75%
    13:00 +1°C° 0 mm 2 mps 743 mmHg 74%
    14:00 +2°C° 0 mm 2 mps 742 mmHg 74%
    15:00 +1°C° 0 mm 2 mps 743 mmHg 77%
    16:00 -1°C° 0 mm 2 mps 743 mmHg 81%
    17:00 -2°C° 0 mm 2 mps 743 mmHg 84%
    18:00 -2°C° 0 mm 3 mps 743 mmHg 85%
    19:00 -2°C° 0 mm 3 mps 743 mmHg 86%
    20:00 -2°C° 0 mm 3 mps 743 mmHg 87%
    21:00 -2°C° 0 mm 3 mps 743 mmHg 88%
    22:00 -3°C° 0 mm 4 mps 743 mmHg 88%
    23:00 -3°C° 0 mm 4 mps 743 mmHg 88%

    Tomorrow, 13 December, Thursday

    Time Temperature Precipitation Wind Pressure Humidity
    00:00 -3°C° 0.2 mm 4 mps 743 mmHg 88%
    01:00 -4°C° 0.2 mm 5 mps 743 mmHg 88%
    02:00 -4°C° 0.2 mm 5 mps 743 mmHg 88%
    03:00 -2°C° 0.3 mm 5 mps 743 mmHg 89%
    04:00 -2°C° 0.3 mm 5 mps 743 mmHg 89%
    05:00 -2°C° 0.3 mm 5 mps 743 mmHg 89%
    06:00 -2°C° 0.3 mm 5 mps 743 mmHg 90%
    07:00 -2°C° 0.3 mm 5 mps 743 mmHg 90%
    08:00 -2°C° 0.3 mm 5 mps 743 mmHg 90%
    09:00 -2°C° 0.3 mm 5 mps 743 mmHg 90%
    10:00 -2°C° 0.3 mm 5 mps 743 mmHg 89%
    11:00 -2°C° 0.3 mm 5 mps 743 mmHg 88%
    12:00 -2°C° 0.2 mm 5 mps 743 mmHg 88%
    13:00 -2°C° 0.2 mm 5 mps 743 mmHg 87%
    14:00 -2°C° 0.2 mm 5 mps 743 mmHg 87%
    15:00 -2°C° 0.2 mm 5 mps 743 mmHg 88%
    16:00 -2°C° 0.2 mm 4 mps 744 mmHg 88%
    17:00 -2°C° 0.2 mm 4 mps 744 mmHg 89%
    18:00 -3°C° 0.1 mm 4 mps 744 mmHg 90%
    19:00 -3°C° 0.1 mm 4 mps 744 mmHg 90%
    20:00 -3°C° 0.1 mm 4 mps 744 mmHg 91%
    21:00 -3°C° 0 mm 4 mps 744 mmHg 91%
    22:00 -3°C° 0 mm 4 mps 745 mmHg 92%
    23:00 -2°C° 0 mm 3 mps 745 mmHg 92%

    Day after tomorrow, 14 December, Friday

    Time Temperature Precipitation Wind Pressure Humidity
    00:00 -4°C° 0 mm 3 mps 745 mmHg 92%
    01:00 -4°C° 0 mm 3 mps 745 mmHg 92%
    02:00 -4°C° 0 mm 3 mps 745 mmHg 92%
    03:00 -4°C° 0.1 mm 3 mps 745 mmHg 92%
    04:00 -4°C° 0.1 mm 3 mps 745 mmHg 92%
    05:00 -4°C° 0.1 mm 3 mps 745 mmHg 92%
    06:00 -4°C° 0 mm 3 mps 746 mmHg 92%
    07:00 -4°C° 0 mm 3 mps 746 mmHg 93%
    08:00 -4°C° 0 mm 3 mps 746 mmHg 93%
    09:00 -4°C° 0 mm 3 mps 746 mmHg 91%
    10:00 -2°C° 0 mm 3 mps 747 mmHg 90%
    11:00 -2°C° 0 mm 3 mps 747 mmHg 88%
    12:00 -2°C° 0 mm 2 mps 747 mmHg 87%
    13:00 -1°C° 0 mm 2 mps 747 mmHg 87%
    14:00 -1°C° 0 mm 2 mps 747 mmHg 86%
    15:00 -1°C° 0 mm 2 mps 747 mmHg 88%
    16:00 0°C° 0 mm 1 mps 747 mmHg 90%
    17:00 0°C° 0 mm 1 mps 748 mmHg 92%
    18:00 0°C° 0 mm 1 mps 748 mmHg 93%
    19:00 0°C° 0 mm 1 mps 748 mmHg 93%
    20:00 0°C° 0 mm 1 mps 749 mmHg 93%
    21:00 0°C° 0 mm 1 mps 749 mmHg 92%
    22:00 0°C° 0 mm 1 mps 749 mmHg 92%
    23:00 -1°C° 0 mm 1 mps 749 mmHg 92%

    15 December, Saturday

    Time Temperature Precipitation Wind Pressure Humidity
    00:00 -1°C° 0 mm 1 mps 749 mmHg 92%
    01:00 -2°C° 0 mm 1 mps 749 mmHg 92%
    02:00 -2°C° 0 mm 1 mps 749 mmHg 92%
    03:00 -5°C° 0 mm 2 mps 749 mmHg 93%
    04:00 -5°C° 0 mm 2 mps 749 mmHg 93%
    05:00 -5°C° 0 mm 2 mps 749 mmHg 94%
    06:00 -5°C° 0 mm 2 mps 749 mmHg 93%
    07:00 -5°C° 0 mm 2 mps 750 mmHg 93%
    08:00 -5°C° 0 mm 2 mps 750 mmHg 93%
    09:00 -6°C° 0 mm 3 mps 750 mmHg 91%
    10:00 -5°C° 0 mm 3 mps 750 mmHg 90%
    11:00 -5°C° 0 mm 3 mps 750 mmHg 89%
    12:00 -4°C° 0 mm 4 mps 750 mmHg 88%
    13:00 -4°C° 0 mm 4 mps 750 mmHg 87%
    14:00 -4°C° 0 mm 4 mps 750 mmHg 86%
    15:00 -4°C° 0 mm 4 mps 750 mmHg 87%
    16:00 -4°C° 0 mm 4 mps 750 mmHg 88%
    17:00 -4°C° 0 mm 4 mps 750 mmHg 89%
    18:00 -4°C° 0.1 mm 4 mps 750 mmHg 89%
    19:00 -4°C° 0.1 mm 4 mps 750 mmHg 90%
    20:00 -4°C° 0.1 mm 4 mps 750 mmHg 90%
    21:00 -4°C° 0.2 mm 4 mps 750 mmHg 91%
    22:00 -5°C° 0.2 mm 5 mps 750 mmHg 91%
    23:00 -5°C° 0.2 mm 5 mps 750 mmHg 91%

    16 December, Sunday

    Time Temperature Precipitation Wind Pressure Humidity
    00:00 -5°C° 0.3 mm 5 mps 750 mmHg 91%
    01:00 -5°C° 0.3 mm 5 mps 750 mmHg 92%
    02:00 -5°C° 0.3 mm 5 mps 750 mmHg 92%
    03:00 -5°C° 0.3 mm 5 mps 750 mmHg 92%
    04:00 -5°C° 0.3 mm 5 mps 750 mmHg 92%
    05:00 -5°C° 0.3 mm 5 mps 750 mmHg 92%
    06:00 -6°C° 0.2 mm 6 mps 750 mmHg 92%
    07:00 -6°C° 0.2 mm 6 mps 750 mmHg 92%
    08:00 -6°C° 0.2 mm 6 mps 750 mmHg 92%
    09:00 -5°C° 0.2 mm 6 mps 750 mmHg 91%
    10:00 -5°C° 0.2 mm 6 mps 750 mmHg 91%
    11:00 -5°C° 0.2 mm 6 mps 750 mmHg 91%
    12:00 -5°C° 0.2 mm 6 mps 750 mmHg 91%
    13:00 -4°C° 0.2 mm 5 mps 750 mmHg 91%
    14:00 -4°C° 0.2 mm 5 mps 749 mmHg 92%
    15:00 -4°C° 0.3 mm 5 mps 749 mmHg 92%
    16:00 -5°C° 0.3 mm 5 mps 749 mmHg 93%
    17:00 -5°C° 0.3 mm 5 mps 749 mmHg 94%
    18:00 -5°C° 0.1 mm 5 mps 749 mmHg 94%
    19:00 -5°C° 0.1 mm 5 mps 749 mmHg 94%
    20:00 -4°C° 0.1 mm 4 mps 749 mmHg 94%
    21:00 -4°C° 0 mm 4 mps 749 mmHg 94%
    22:00 -4°C° 0 mm 4 mps 749 mmHg 94%
    23:00 -4°C° 0 mm 4 mps 748 mmHg 94%

    17 December, Monday

    Time Temperature Precipitation Wind Pressure Humidity
    00:00 -4°C° 0 mm 3 mps 748 mmHg 94%
    01:00 -4°C° 0 mm 3 mps 748 mmHg 94%
    02:00 -4°C° 0 mm 3 mps 748 mmHg 94%
    03:00 -4°C° 0 mm 3 mps 748 mmHg 94%
    04:00 -4°C° 0 mm 3 mps 748 mmHg 94%
    05:00 -4°C° 0 mm 3 mps 747 mmHg 93%
    06:00 -4°C° 0 mm 3 mps 747 mmHg 93%
    07:00 -4°C° 0 mm 3 mps 747 mmHg 93%
    08:00 -5°C° 0 mm 3 mps 747 mmHg 93%
    09:00 -3°C° 0 mm 2 mps 747 mmHg 93%
    10:00 -2°C° 0 mm 2 mps 747 mmHg 92%
    11:00 -1°C° 0 mm 2 mps 747 mmHg 91%
    12:00 -1°C° 0.1 mm 2 mps 747 mmHg 92%
    13:00 -1°C° 0.1 mm 2 mps 747 mmHg 92%
    14:00 +1°C° 0.1 mm 2 mps 746 mmHg 93%
    15:00 -1°C° 0.4 mm 2 mps 746 mmHg 93%
    16:00 +1°C° 0.4 mm 1 mps 746 mmHg 94%
    17:00 +1°C° 0.4 mm 1 mps 746 mmHg 95%
    18:00 -1°C° 0.5 mm 2 mps 746 mmHg 96%
    19:00 -1°C° 0.5 mm 2 mps 746 mmHg 96%
    20:00 +1°C° 0.5 mm 2 mps 746 mmHg 97%
    21:00 +1°C° 0.3 mm 2 mps 746 mmHg 97%
    22:00 +2°C° 0.3 mm 1 mps 746 mmHg 97%
    23:00 +2°C° 0.3 mm 1 mps 746 mmHg 97%
    Show more